Sausalito, CA (94965)

4:57 AM PDT on April 25, 2017 (GMT -0700)
Sausalito Yacht Harbor - C-Dock | | Change Station

Elev 10 ft 37.86 °N, 122.48 °W | Updated 2 seconds ago

Mostly Cloudy
Mostly Cloudy
54.8 °F
Feels Like 54.8 °F
N
0.0
Wind Variable Wind from North
Gusts 7.0 mph

Today
High -- | Low -- °F
--% Chance of Precip.
Yesterday
High -- | Low -- °F
Precip. -- in
Pressure 30.06 in
Visibility 10.0 miles
Clouds Few 1600 ft
Dew Point 46 °F
Humidity 73%
Rainfall 0.00 in
Snow Depth Not available.
6:20 AM 7:55 PM
Waning Crescent, 1% visible
METAR KSFO 251056Z 27016KT 10SM FEW016 11/07 A3005 RMK AO2 SLP177 T01110072
Pressure 30.06 in
Visibility 10.0 miles
Clouds Few 1600 ft
Dew Point 46 °F
Humidity 73%
Rainfall 0.00 in
Snow Depth Not available.
6:20 AM 7:55 PM
Waning Crescent, 1% visible
METAR KSFO 251056Z 27016KT 10SM FEW016 11/07 A3005 RMK AO2 SLP177 T01110072

Get Severe Weather Alerts

Thanks for signing up!

Be on the lookout for a verification email in your inbox.

You'll start receiving the daily forecast at 8 AM.

×

10-Day Weather Forecast

Almanac

Astronomy

Apr. 25, 2017 Rise Set
Actual Time
Civil Twilight
Nautical Twilight
Astronomical Twilight
Moon
Length of Visible Light
Length of Day
Tomorrow will be .
, % of the Moon is Illuminated

Today's Extremes

State Highs State Lows

Community

WunderPhotos

WunderBlog® & News

Nearby

Air Quality

  Air Quality AQ Index Pollutant
Not available.

Snow Depth

Station Depth Elevation

Earthquake Activity

City Distance Mag. Time & Date
Minimum magnitude displayed is 2.5.

Coastal Water Temperatures

Place Temperature

Stations

Nearby Weather Stations

Station Location Temp. Windchill Dew Point Humidity Wind Precip. Elev Updated Type
                   

Watches & Warnings

There are currently no watches in effect.